Regional Weather Roundup
Issued by NWS Northern Indiana

Home | Current Version | Previous Version | Graphics & Text | Print | Product List | Glossary On
Versions: 1 2 3 4 5 6 7 8 9 10 11 12 13 14 15 16 17 18 19 20 21 22 23 24 25 26 27 28 29 30 31 32 33 34 35 36 37 38 39 40 41 42 43 44 45 46 47 48 49 50
280
ASUS43 KIWX 222310
RWRIWX

KIWX WEATHER ROUNDUP
NATIONAL WEATHER SERVICE NORTHERN INDIANA
700 PM EDT THU JUN 22 2017

NOTE: "FAIR" INDICATES FEW OR NO CLOUDS BELOW 12,000 FEET WITH NO
SIGNIFICANT WEATHER AND/OR OBSTRUCTIONS TO VISIBILITY.

* THESE STATIONS ARE NOT UNDER NWS QUALITY CONTROL. THEY ALSO MAY NOT
  REPORT WEATHER SUCH AS PRECIPITATION OR FOG.

INZ001>027-230000-
NORTHERN INDIANA

CITY           SKY/WX    TMP DP  RH WIND       PRES   REMARKS
GARY*          PTSUNNY   84  70  61 S12G23    29.75F
VALPARAISO     PTSUNNY   83  71  67 S13G21    29.78F
MICHIGAN CITY* LGT RAIN  77  70  78 S9G23     29.77F
LAPORTE*       CLOUDY    82  70  67 S15G23    29.79S
KNOX*          PTSUNNY   79  61  53 S10G18    29.78F
SOUTH BEND     LGT RAIN  80  70  71 S15G24    29.78F
ELKHART*       RAIN      82  70  65 S17G29    29.78F
GOSHEN         PTSUNNY   83  66  56 SW18G31   29.79F
MONTICELLO*    CLOUDY    81  69  67 S17G23    29.80F
LOGANSPORT*    CLOUDY    77  70  78 S17       29.83F
ROCHESTER*     MOSUNNY   82  72  69 S10       29.81F
WARSAW*        PTSUNNY   81  68  65 SW7       29.80F
AUBURN*        SUNNY     84  64  51 S12G20    29.81F
FORT WAYNE     PTSUNNY   83  67  58 S18       29.83F
PERU/GRISSOM   CLOUDY    77  71  82 SW13      29.80S
MARION*        CLOUDY    79  68  69 S24G30    29.86F

$$
INZ028>050-230000-
CENTRAL INDIANA

CITY           SKY/WX    TMP DP  RH WIND       PRES   REMARKS
LAFAYETTE      PTSUNNY   80  70  71 S8G21     29.81F
KOKOMO*        PTSUNNY   81  70  69 S23       29.84F
MUNCIE*        CLOUDY    79  68  69 S16       29.87F
INDIANAPOLIS   CLOUDY    75  69  81 S15       29.87F

$$
MIZ043>046-050>051-056>058-064>065-071>073-077>080-230000-
SOUTHWEST LOWER MICHIGAN

CITY           SKY/WX    TMP DP  RH WIND       PRES   REMARKS
BATTLE CREEK   CLOUDY    82  70  66 SW12      29.78F
BENTON HARBOR  CLOUDY    83  71  67 SW13      29.75S
COLDWATER*     MOSUNNY   79  73  81 S5        29.80S
HILLSDALE*     CLOUDY    77  68  73 S5        29.81F
HOLLAND        MOSUNNY   82  70  66 SW8       29.75F
GRAND RAPIDS   PTSUNNY   83  69  62 SW9       29.74F
KALAMAZOO      CLOUDY    83  68  60 S13       29.77F
STURGIS*       PTSUNNY   81  70  68 SW17      29.78F
THREE RIVERS*  PTSUNNY   82  69  64 SW9       29.78F

$$
OHZ001>008-015>018-024>025-230000-
NORTHWEST OHIO

CITY           SKY/WX    TMP DP  RH WIND       PRES   REMARKS
WAUSEON*       FAIR      82  72  69 SW12      29.79F
DEFIANCE       PTSUNNY   83  66  56 SW14G23   29.81F
FINDLAY        MOSUNNY   85  65  51 SW21G33   29.84F
TOLEDO EXPRESS MOSUNNY   79  74  84 S7        29.80F
TOLEDO METCALF CLOUDY    76  75  97 SE5       29.81F
LIMA           CLOUDY    82  68  62 SW17G26   29.87F

$$
AND FOR LAKE MICHIGAN COASTAL AND OPEN LAKE BUOY OBSERVATIONS

STATION/POSITION TEMP    WIND        PRES    VSBY  WAVE
                 AIR SEA DIR/SP/G                  HT/PER
                 (F)     (DEG/KT/KT) (MB)    (MI)  (FT/S)
CALUMET HARBOR    83     180/ 10/ 15 1006.7F
MICHIGAN CITY     81     190/ 20/ 22   N/A
BURNS HARBOR      81     200/ 17/ 27 1007.8F
SOUTH LAKE BUOY   69 61  150/ 17/ 21 1006.0F         1/ 4
4 MI NW BRIDGMAN  75 69  210/  8/ 12 1007.3          2/ 3
MICHIGAN CITY     77 68  210/ 16/ 21   N/A           2/ 3

$$
&&




USA.gov is the U.S. government's official web portal to all federal, state and local government web resources and services.